Погода в Выше

Россия / Республика Мордовия     53°50′56″N   42°22′38″E
темп.,
°C
ветер,
м/с
пор.,
м/с
влажн.,
%
обл.,
%
осадки,
мм/ч
давл.,
гПа
погр.,
м
15 апреля, чт
чт1500:00+10юв34658 0.0 101959
03:00+9юв33686 0.0 101837
06:00+9юв356898 0.0 101885
09:00+15юв355090 0.0 1017313
12:00+20вюв5735100 0.0 10161137
15:00+21вюв573021 0.0 10151981
18:00+18в3746100 0.0 1015157
21:00+14в3760100 0.0 1016119
16 апреля, пт
пт1600:00+12в3768100 0.0 1016111
03:00+10вюв3474100 0.0 101757
06:00+10всв3574100 0.0 1018101
09:00+14в4760100 0.0 1018389
12:00+18в4643100 0.0 1019924
15:00+19в573596 0.0 10181754
18:00+16в485111 0.0 1019254
21:00+12всв6147654 0.1 1020439
17 апреля, сб
сб1700:00+11всв61382100 0.0 1020383
03:00+9всв5118973 0.0 1021315
06:00+8всв5118925 0.0 1021346
09:00+12в61066100 0.0 1021547
12:00+17в694988 0.0 10201260
15:00+18в694298 0.0 10192329
18:00+15всв6125618 0.1 1018837
21:00+11всв8166789 0.9 1019691
18 апреля, вс
вс1800:00+8ю5782100 0.0 1020573
03:00+7вюв3591100 2.8 1021386
06:00+7всв249192 0.3 1021264
09:00+8всв4483100 0.3 1021623
12:00+8всв568196 0.1 1022659
15:00+6всв6982100 0.1 1022735
18:00+5всв61188100 0.3 1023891
21:00+6всв71282100 0.4 1023956
19 апреля, пн
пн1900:00+7всв5127294 0.0 1022642
03:00+6св5128279 0.0 1023530
06:00+6всв61280100 0.0 1024547
09:00+7всв5974100 0.0 1024656
12:00+10всв7859100 0.0 10251341
15:00+10всв575688 0.0 10241580
18:00+8всв5855100 0.0 10251016
21:00+5св5115921 0.0 1025527